User: anonymous   Login
Location: Oshawa
(43.9000°N, 78.8670°W)
Time: 16:01:06
(UTC-05:00)
Language:

Cosmos 839 Rocket - Orbit

View from above orbital plane
View from above orbital plane
View from above satellite
View from above satellite

Ground track
Ground track

The orbit data is extracted from the following two-line orbital elements,

1  9013U 76067B   17049.87122649 -.00000045 +00000-0 +30531-4 0  9995
2  9013 065.8635 236.0869 0707020 119.8581 339.0027 12.35327015831792
Epoch (UTC): 18 February 2017 20:54:33
Eccentricity: 0.0707020
inclination: 65.8635°
perigee height: 967 km
apogee height: 2085 km
right ascension of ascending node: 236.0869°
argument of perigee: 119.8581°
revolutions per day: 12.35327015
mean anomaly at epoch: 339.0027°
orbit number at epoch: 83179

The dashed part of the orbit path shows where the satellite is in the earth's shadow,  

DLR